Stündliche Wetter Abeokuta

Heute, 17 Juni, Donnerstag

Zeit Temperatur Niederschläge Wind Luftdruck Luftfeuchtigkeit
00:00 +25°C° 0 mm 1 m/S 753 mmHg 93%
01:00 +25°C° 0 mm 1 m/S 753 mmHg 93%
02:00 +26°C° 0 mm 1 m/S 753 mmHg 92%
03:00 +24°C° 0 mm 0 m/S 752 mmHg 92%
04:00 +24°C° 0 mm 0 m/S 753 mmHg 92%
05:00 +26°C° 0 mm 1 m/S 753 mmHg 92%
06:00 +26°C° 0 mm 1 m/S 753 mmHg 92%
07:00 +27°C° 0 mm 1 m/S 754 mmHg 84%
08:00 +29°C° 0 mm 2 m/S 754 mmHg 76%
09:00 +30°C° 0 mm 2 m/S 754 mmHg 68%
10:00 +32°C° 0 mm 2 m/S 754 mmHg 61%
11:00 +35°C° 0 mm 2 m/S 753 mmHg 54%
12:00 +36°C° 0 mm 2 m/S 753 mmHg 46%
13:00 +35°C° 0 mm 2 m/S 752 mmHg 49%
14:00 +35°C° 0 mm 2 m/S 752 mmHg 52%
15:00 +34°C° 0 mm 3 m/S 751 mmHg 54%
16:00 +33°C° 0.1 mm 3 m/S 751 mmHg 60%
17:00 +31°C° 0.1 mm 3 m/S 752 mmHg 66%
18:00 +29°C° 0.1 mm 3 m/S 752 mmHg 72%
19:00 +28°C° 1 mm 3 m/S 753 mmHg 78%
20:00 +27°C° 1 mm 2 m/S 753 mmHg 84%
21:00 +26°C° 1 mm 1 m/S 754 mmHg 91%
22:00 +26°C° 0.8 mm 1 m/S 754 mmHg 92%
23:00 +26°C° 0.8 mm 2 m/S 754 mmHg 93%

Morgen, 18 Juni, Freitag

Zeit Temperatur Niederschläge Wind Luftdruck Luftfeuchtigkeit
00:00 +26°C° 0.8 mm 2 m/S 753 mmHg 94%
01:00 +26°C° 0 mm 2 m/S 753 mmHg 95%
02:00 +25°C° 0 mm 2 m/S 753 mmHg 96%
03:00 +25°C° 0 mm 1 m/S 753 mmHg 97%
04:00 +25°C° 0 mm 1 m/S 753 mmHg 97%
05:00 +25°C° 0 mm 1 m/S 753 mmHg 97%
06:00 +23°C° 0 mm 0 m/S 753 mmHg 97%
07:00 +27°C° 0 mm 1 m/S 754 mmHg 90%
08:00 +28°C° 0 mm 1 m/S 754 mmHg 83%
09:00 +29°C° 0 mm 1 m/S 755 mmHg 76%
10:00 +31°C° 0.1 mm 1 m/S 754 mmHg 69%
11:00 +32°C° 0.1 mm 1 m/S 754 mmHg 62%
12:00 +33°C° 0.1 mm 1 m/S 753 mmHg 55%
13:00 +32°C° 1.6 mm 2 m/S 753 mmHg 62%
14:00 +31°C° 1.6 mm 2 m/S 752 mmHg 70%
15:00 +30°C° 1.6 mm 2 m/S 752 mmHg 78%
16:00 +29°C° 1.1 mm 2 m/S 752 mmHg 82%
17:00 +28°C° 1.1 mm 2 m/S 752 mmHg 86%
18:00 +27°C° 1.1 mm 2 m/S 753 mmHg 90%
19:00 +26°C° 0 mm 2 m/S 753 mmHg 91%
20:00 +26°C° 0 mm 2 m/S 753 mmHg 93%
21:00 +25°C° 0 mm 2 m/S 753 mmHg 94%
22:00 +25°C° 0 mm 1 m/S 753 mmHg 94%
23:00 +25°C° 0 mm 1 m/S 753 mmHg 94%

übermorgen, 19 Juni, Samstag

Zeit Temperatur Niederschläge Wind Luftdruck Luftfeuchtigkeit
00:00 +23°C° 0 mm 0 m/S 753 mmHg 94%
01:00 +23°C° 0 mm 0 m/S 753 mmHg 94%
02:00 +22°C° 0 mm 0 m/S 753 mmHg 95%
03:00 +22°C° 0 mm 0 m/S 753 mmHg 96%
04:00 +22°C° 0 mm 0 m/S 753 mmHg 96%
05:00 +23°C° 0 mm 0 m/S 753 mmHg 96%
06:00 +23°C° 0 mm 0 m/S 754 mmHg 96%
07:00 +26°C° 0 mm 1 m/S 754 mmHg 88%
08:00 +28°C° 0 mm 1 m/S 754 mmHg 79%
09:00 +30°C° 0 mm 1 m/S 755 mmHg 71%
10:00 +31°C° 0 mm 1 m/S 754 mmHg 64%
11:00 +33°C° 0 mm 1 m/S 753 mmHg 57%
12:00 +35°C° 0 mm 1 m/S 753 mmHg 50%
13:00 +34°C° 0 mm 1 m/S 752 mmHg 52%
14:00 +35°C° 0 mm 2 m/S 751 mmHg 54%
15:00 +34°C° 0 mm 2 m/S 751 mmHg 56%
16:00 +31°C° 0.6 mm 2 m/S 751 mmHg 66%
17:00 +29°C° 0.6 mm 2 m/S 752 mmHg 76%
18:00 +28°C° 0.6 mm 3 m/S 752 mmHg 86%
19:00 +27°C° 0.1 mm 2 m/S 753 mmHg 88%
20:00 +26°C° 0.1 mm 2 m/S 753 mmHg 91%
21:00 +26°C° 0.1 mm 2 m/S 754 mmHg 93%
22:00 +26°C° 0.1 mm 2 m/S 753 mmHg 94%
23:00 +26°C° 0.1 mm 1 m/S 753 mmHg 94%

20 Juni, Sonntag

Zeit Temperatur Niederschläge Wind Luftdruck Luftfeuchtigkeit
00:00 +26°C° 0.1 mm 1 m/S 753 mmHg 95%
01:00 +25°C° 0 mm 1 m/S 753 mmHg 95%
02:00 +25°C° 0 mm 1 m/S 753 mmHg 96%
03:00 +25°C° 0 mm 1 m/S 753 mmHg 96%
04:00 +26°C° 0.1 mm 1 m/S 753 mmHg 95%
05:00 +26°C° 0.1 mm 1 m/S 753 mmHg 93%
06:00 +26°C° 0.1 mm 1 m/S 753 mmHg 92%
07:00 +27°C° 0 mm 1 m/S 754 mmHg 87%
08:00 +28°C° 0 mm 2 m/S 754 mmHg 81%
09:00 +29°C° 0 mm 2 m/S 754 mmHg 76%
10:00 +30°C° 0.1 mm 2 m/S 754 mmHg 71%
11:00 +31°C° 0.1 mm 2 m/S 754 mmHg 67%
12:00 +32°C° 0.1 mm 2 m/S 753 mmHg 62%
13:00 +31°C° 2.2 mm 2 m/S 753 mmHg 68%
14:00 +30°C° 2.2 mm 2 m/S 752 mmHg 74%
15:00 +29°C° 2.2 mm 2 m/S 752 mmHg 80%
16:00 +28°C° 1.1 mm 2 m/S 752 mmHg 84%
17:00 +27°C° 1.1 mm 2 m/S 752 mmHg 89%
18:00 +26°C° 1.1 mm 2 m/S 752 mmHg 93%
19:00 +26°C° 0.5 mm 2 m/S 753 mmHg 94%
20:00 +26°C° 0.5 mm 1 m/S 753 mmHg 95%
21:00 +26°C° 0.5 mm 1 m/S 754 mmHg 96%
22:00 +25°C° 0.5 mm 1 m/S 753 mmHg 96%
23:00 +25°C° 0.5 mm 1 m/S 753 mmHg 96%

21 Juni, Montag

Zeit Temperatur Niederschläge Wind Luftdruck Luftfeuchtigkeit
00:00 +25°C° 0.5 mm 1 m/S 753 mmHg 97%
01:00 +25°C° 0 mm 1 m/S 753 mmHg 97%
02:00 +25°C° 0 mm 1 m/S 752 mmHg 97%
03:00 +23°C° 0 mm 0 m/S 752 mmHg 98%
04:00 +23°C° 0.4 mm 0 m/S 753 mmHg 98%
05:00 +23°C° 0.4 mm 0 m/S 753 mmHg 97%
06:00 +23°C° 0.4 mm 0 m/S 753 mmHg 97%
07:00 +23°C° 0.3 mm 0 m/S 754 mmHg 96%
08:00 +24°C° 0.3 mm 0 m/S 754 mmHg 95%
09:00 +24°C° 0.3 mm 0 m/S 754 mmHg 94%
10:00 +24°C° 1.2 mm 0 m/S 754 mmHg 93%
11:00 +24°C° 1.2 mm 0 m/S 754 mmHg 92%
12:00 +24°C° 1.2 mm 0 m/S 753 mmHg 91%
13:00 +27°C° 1.1 mm 1 m/S 753 mmHg 89%
14:00 +27°C° 1.1 mm 1 m/S 752 mmHg 87%
15:00 +28°C° 1.1 mm 2 m/S 752 mmHg 85%
16:00 +27°C° 0.2 mm 2 m/S 752 mmHg 89%
17:00 +26°C° 0.2 mm 3 m/S 752 mmHg 92%
18:00 +25°C° 0.2 mm 3 m/S 753 mmHg 96%
19:00 +25°C° 0.2 mm 2 m/S 753 mmHg 96%
20:00 +25°C° 0.2 mm 2 m/S 753 mmHg 96%
21:00 +25°C° 0.2 mm 2 m/S 754 mmHg 96%
22:00 +25°C° 0.1 mm 2 m/S 754 mmHg 97%
23:00 +25°C° 0.1 mm 1 m/S 754 mmHg 97%

22 Juni, Dienstag

Zeit Temperatur Niederschläge Wind Luftdruck Luftfeuchtigkeit
00:00 +25°C° 0.1 mm 1 m/S 753 mmHg 97%
01:00 +24°C° 0 mm 1 m/S 753 mmHg 98%
02:00 +24°C° 0 mm 1 m/S 753 mmHg 98%
03:00 +24°C° 0 mm 1 m/S 752 mmHg 98%
04:00 +24°C° 0 mm 1 m/S 752 mmHg 97%
05:00 +24°C° 0 mm 1 m/S 753 mmHg 97%
06:00 +24°C° 0 mm 1 m/S 753 mmHg 97%
07:00 +25°C° 0 mm 1 m/S 753 mmHg 90%
08:00 +27°C° 0 mm 1 m/S 754 mmHg 83%
09:00 +28°C° 0 mm 2 m/S 754 mmHg 76%
10:00 +29°C° 0.4 mm 2 m/S 754 mmHg 73%
11:00 +30°C° 0.4 mm 2 m/S 753 mmHg 70%
12:00 +31°C° 0.4 mm 2 m/S 753 mmHg 66%
13:00 +31°C° 0.9 mm 2 m/S 752 mmHg 68%
14:00 +30°C° 0.9 mm 2 m/S 752 mmHg 69%
15:00 +30°C° 0.9 mm 2 m/S 751 mmHg 70%
16:00 +29°C° 1.1 mm 2 m/S 751 mmHg 76%
17:00 +28°C° 1.1 mm 2 m/S 752 mmHg 83%
18:00 +26°C° 1.1 mm 2 m/S 752 mmHg 89%
19:00 +26°C° 0.1 mm 2 m/S 752 mmHg 91%
20:00 +25°C° 0.1 mm 2 m/S 752 mmHg 92%
21:00 +25°C° 0.1 mm 1 m/S 752 mmHg 94%
22:00 +25°C° 0 mm 1 m/S 752 mmHg 95%
23:00 +25°C° 0 mm 1 m/S 752 mmHg 96%
Mehr zeigen

Wir brauchen deine Erlaubnis

Meteoprog und unser Service Anbieter werden persönliche Daten aufbewahren, so wie Cookies, Geräte Bezeichnung oder ähnliche Technologien von deinem Gerät und Prozess, so wie Persönliche Daten Inhalte und Werbungen, genauso wie social Media und den Verkehr zu analysieren.

  • Aufbewahrung und/oder Zugang zu deiner Geräte Informationen.

    Cookies, Geräte Bezeichnung oder andere Informationen, können aufbewahrt oder Zugang zu deinem Gerät erhalten, für den Grund, der oben angegeben wird.

  • Personalisierte Werbung und Inhalte, Messungen, Einblick in das Publikum und Produkt Entwicklung.

    Werbungen und Inhalte können personalisiert werden, basierend auf ein Profil. Mehr Daten können besser personalisierte Werbungen und Inhalte hinzufügen. Werbung und Inhalte können gezeigt und gemessen werden. Einblicke über das Publikum, welche die Werbung gesehen haben und den Inhalt, können abgeleitet werden. So wie Daten können genutzt werden, um es zu verbessern oder die Benutzer Erfahrung zu verbessern das System und die Software.

Wenn du “Ich stimme zu” klickst, erlaubst du uns, die Cookies zu benutzen die Geräte Bezeichnung, den Web oder ähnliche Technologien zu benutzen. Deine Settings, können in deinem Gerät bei deinem Browser geändert werden.

Für den bestimmten Zweck, berechtigten Interessen beruhen darauf, mehr als auf den Inhalt. Du kannst mehr darüber in unseren Privaten und Cookie Politik lesen.